Regional Weather Roundup
Issued by NWS Sterling, VA

Home | Current Version | Previous Version | Graphics & Text | Print | Product List | Glossary On
Versions: 1 2 3 4 5 6 7 8 9 10 11 12 13 14 15 16 17 18 19 20 21 22 23 24 25 26 27
000
ASUS41 KLWX 171211
RWRLWX

REGIONAL WEATHER ROUNDUP
NATIONAL WEATHER SERVICE BALTIMORE MD/WASHINGTON DC
800 AM EDT TUE OCT 17 2017

Note: "FAIR" indicates few or no clouds below 12,000 feet
with no significant weather and/or obstructions to visibility.
 TC=TEMPERATURE CELSIUS

 * =Non NWS site. Station does not report precipitation (e.g. rain,
    snow, etc.), thunder, or fog.

DCZ001-MDZ009-015-VAZ040>042-051-053>054-171300-
WASHINGTON METRO

CITY           SKY/WX    TMP DP  RH WIND       PRES   REMARKS
WASHINGTON NAT PTCLDY    48  35  60 N9        30.37R
DULLES         CLEAR     38  36  92 CALM      30.36R
ANDREWS AFB    CLEAR     41  36  80 N5        30.35R
FT BELVOIR     CLEAR     40  38  92 CALM      30.37R
QUANTICO       PTCLDY    43  41  93 NW9       30.38R
COLLEGE PARK*  CLEAR     38  37  97 CALM      30.36R
LEESBURG*      CLEAR     37  37 100 NW5       30.37R
MANASSAS*      CLEAR     37  35  92 CALM      30.38R
GAITHERSBURG*  CLEAR     37  34  89 CALM      30.36R

$$

MDZ006>007-011-014-171300-
BALTIMORE METRO

CITY           SKY/WX    TMP DP  RH WIND       PRES   REMARKS
BWI AIRPORT    PTCLDY    41  38  89 CALM      30.36R
MD SCIENCE CTR   N/A     48  36  63 MISG      30.36R
MARTIN STATE   PTCLDY    39  39 100 W3        30.38
ANNAPOLIS      CLEAR     50  41  71 N8        30.35R
FORT MEADE*    CLEAR     36  34  93 CALM      30.38R

$$

MDZ012-015-019>023-171300-
MARYLAND EASTERN SHORE

CITY           SKY/WX    TMP DP  RH WIND       PRES   REMARKS
OCEAN CITY     CLEAR     43  40  89 NW8       30.31R
SALISBURY      CLEAR     43  36  76 N8        30.32R
CAMBRIDGE*     CLEAR     45  36  70 N10       30.33S
EASTON*        CLEAR     43  36  75 N3        30.38R

$$

MDZ017>025-171300-
SOUTHERN MARYLAND

CITY           SKY/WX    TMP DP  RH WIND       PRES   REMARKS
PATUXENT RIVER PTCLDY    50  39  66 NE10      30.33R
ST INIGOES     CLEAR     50  38  63 NE8       30.33R
LEONARDTOWN*   NOT AVBL

$$

MDZ003>005-171300-
NORTH CENTRAL MARYLAND

CITY           SKY/WX    TMP DP  RH WIND       PRES   REMARKS
FREDERICK*     CLEAR     37  37 100 CALM      30.40R
HAGERSTOWN APT CLEAR     40  34  79 CALM      30.36R
WESTMINSTER*   CLEAR     37  36  93 CALM      30.34R

$$

MDZ501>502-171300-
WESTERN MARYLAND

CITY           SKY/WX    TMP DP  RH WIND       PRES   REMARKS
OAKLAND*       CLEAR     34  30  86 CALM      30.29R
CUMBERLAND*    PTCLDY    36  36 100 CALM      30.41R VSB 1/2

$$

VAZ025>031-171300-
SHENANDOAH VALLEY

CITY           SKY/WX    TMP DP  RH WIND       PRES   REMARKS
WINCHESTER*    CLEAR     34  32  93 CALM      30.36R
FRONT ROYAL*   CLEAR     36  36 100 CALM      30.36R
LURAY*         CLEAR     36  36 100 CALM      30.37R
NEW MARKET*    CLEAR     33  32  96 CALM      30.37R
STAUNTON*      CLEAR     31  31  97 CALM      30.38R
WAYNESBORO*    CLEAR     35  35  99 CALM      30.36R

$$

WVZ021-048>050-054>055-171300-
EASTERN WEST VIRGINIA PANHANDLE

CITY           SKY/WX    TMP DP  RH WIND       PRES   REMARKS
MARTINSBURG    CLEAR     37  34  89 CALM      30.36R
PETERSBURG*    FOG       33  33  99 CALM      30.39R VSB<1/4

$$

VAZ036>039-050-171300-
CENTRAL FOOTHILLS

CITY           SKY/WX    TMP DP  RH WIND       PRES   REMARKS
CHARLOTTESVILL CLEAR     41  40  96 W3        30.36R
CULPEPER*      CLEAR     37  35  92 CALM      30.38R
ORANGE*        CLEAR     41  36  81 CALM      30.36R
GORDONSVILLE*  CLEAR     39  38  97 CALM      30.36R
WARRENTON*     CLEAR     35  33  90 SE5       30.36R

$$

VAZ055>057-171300-
NORTH AND CENTRAL PIEDMONT

CITY           SKY/WX    TMP DP  RH WIND       PRES   REMARKS
FREDERICKSBRG* CLEAR     44  39  82 NW3       30.35S
STAFFORD*      CLEAR     36  36 100 N3        30.40R

$$

NCZ024-NYZ072-PAZ021-071-VAZ022-071-171300-
OTHER REGIONAL OBSERVATIONS

CITY           SKY/WX    TMP DP  RH WIND       PRES   REMARKS
NEW YORK CITY  CLEAR     43  34  70 CALM      30.35R
PHILADELPHIA   CLEAR     43  33  68 N9        30.35R
PITTSBURGH     CLEAR     36  34  92 CALM      30.34S
ROANOKE        CLEAR     41  38  89 CALM      30.39R
RICHMOND       PTCLDY    44  39  82 N9        30.34R
RALEIGH        PTCLDY    46  40  79 NE5       30.33R

$$

ANZ530>537-171300-
MARINE OBSERVATIONS

STATION/POSITION TIME  TEMP    WIND        PRES
                       AIR SEA DIR/SP/G
                 (UTC) (F)     (DEG/KT/KT) (MB)
THOMAS PT LIGHT  1200   50 68   10/ 15/ 19   N/A
BALT KEY BRIDGE  1148   47      10/  9/ 11 1028.1R
COVE POINT       1148   49      40/ 19/ 23 1027.7R
LEWISETTA        1148   51 65   40/  9/ 14 1027.0R
SOLOMONS ISLAND  1142   50 70   30/  5/  8 1026.7R
PINEY POINT      1148           40/  5/  6   N/A

$$





USA.gov is the U.S. government's official web portal to all federal, state and local government web resources and services.